#timestamp,LO_Frequency,Hit,StdDev 
1543284015.2,286047000.5,N
1543284035.9,286047002.8,N
1543284055.7,286046999.8,N
1543284075.6,286046998.8,N
1543284095.4,286046998.8,N
1543284115.3,286046998.6,N
1543284135.1,286046998.6,N
1543284136.0,286046998.6,N
1543284155.8,286047000.0,N
1543284175.7,286047000.9,N
1543284195.5,286047000.4,N
1543284215.3,286046999.8,N
1543284235.2,286046998.1,N
1543284255.0,286047000.4,N
1543284255.9,286047000.4,N
1543284275.8,286047002.4,N
1543284295.6,286047001.0,N
1543284315.4,286047001.2,N
1543284335.3,286046998.7,N
1543284355.1,286047000.3,N
1543284375.9,286047001.1,N
1543284395.7,286047001.2,N
1543284415.5,286047001.0,N
1543284435.4,286047000.3,N
1543284455.2,286047001.9,N
1543284475.0,286047000.0,N
1543284475.9,286047000.0,N
1543284495.8,286047000.1,N
1543284515.6,286047002.8,N
1543284535.5,286047001.1,N
1543284555.3,286047000.6,N
1543284575.1,286047000.1,N
1543284595.9,286047002.7,N
1543284615.7,286047002.8,N
1543284635.5,286047002.3,N
1543284655.4,286047000.7,N
1543284675.2,286046999.4,N
1543284695.1,286046999.5,N
1543284696.0,286046999.5,N
1543284715.8,286046999.4,N
1543284735.6,286046999.4,N
1543284755.5,286046998.5,N
1543284775.3,286047000.3,N
1543284795.2,286046999.9,N
1543284815.9,286047001.0,N
1543284835.7,286046998.2,N
1543284855.6,286046999.1,N
1543284875.4,286046999.3,N
1543284895.2,286047000.1,N
1543284915.1,286046999.8,N
1543284916.0,286046999.8,N
1543284935.8,286047001.9,N
1543284955.7,286047000.0,N
1543284975.5,286046999.0,N
1543284995.3,286046999.2,N
1543285015.2,286046999.2,N
1543285035.0,286046998.7,N
1543285035.9,286046998.7,N
1543285055.7,286046998.6,N
1543285075.6,286046998.6,N
1543285095.4,286046996.5,N
1543285115.3,286046996.9,N
1543285135.1,286046999.0,N
1543285136.0,286046999.0,N
1543285155.8,286047001.2,N
1543285175.7,286046998.1,N
1543285195.5,286047000.5,N
1543285215.3,286046999.8,N
1543285235.2,286047002.0,N
1543285255.0,286047002.3,N
1543285255.9,286047002.3,N
1543285275.8,286047000.4,N
1543285295.6,286047001.8,N
1543285315.4,286047011.9,Y
1543285335.3,286047004.2,P
1543285355.1,286047004.4,N
1543285375.9,286047004.4,N
1543285395.7,286047002.1,N
1543285415.5,286047003.2,N
1543285435.4,286047004.3,N
1543285455.2,286046999.8,N
1543285475.0,286047002.4,N
1543285475.9,286047002.4,N
1543285495.8,286047004.3,N
1543285515.6,286047002.5,N
1543285535.5,286047001.6,N
1543285555.3,286047004.3,N
1543285575.1,286047003.8,N
1543285595.9,286047004.2,N
1543285615.7,286047003.6,N
1543285635.5,286047005.8,Y
1543285655.4,286047002.1,P
1543285675.2,286047002.0,P
1543285695.1,286047004.0,P
1543285696.0,286047004.0,Y
1543285715.8,286047001.3,P
1543285735.6,286047003.8,P
1543285755.5,286047002.0,N
1543285775.3,286047003.8,Y
1543285795.2,286046999.2,P
1543285815.9,286046997.2,N
1543285835.7,286046998.4,N
1543285855.6,286046998.1,N
1543285875.4,286046998.1,N
1543285895.2,286047000.7,N
1543285915.1,286046998.8,N
1543285916.0,286046998.8,N
1543285935.8,286046998.1,N
1543285955.7,286046996.9,N
1543285975.5,286046999.5,N
1543285995.3,286046998.9,N
1543286015.2,286046999.5,N
1543286035.9,286047001.1,N
1543286055.7,286047002.8,N
1543286075.6,286047000.6,N
1543286095.4,286047002.2,N
1543286115.3,286047002.5,N
1543286135.1,286047004.3,N
1543286136.0,286047004.3,N
1543286155.8,286047004.1,N
1543286175.7,286047002.1,N
1543286195.5,286047002.3,N
1543286215.3,286047000.3,N
1543286235.2,286046999.8,N
1543286255.0,286047002.2,N
1543286255.9,286047002.2,N
1543286275.8,286047001.5,N
1543286295.6,286047003.5,N
1543286315.4,286047003.4,N
1543286335.3,286047004.0,N
1543286355.1,286047003.4,N
1543286375.9,286047003.0,N
1543286395.7,286047003.5,N
1543286415.5,286047002.9,N
1543286435.4,286047003.9,N
1543286455.2,286047004.3,N
1543286475.0,286047003.6,N
1543286475.9,286047003.6,N
1543286495.8,286047006.0,Y
1543286515.6,286047003.5,P
1543286535.5,286047004.3,P
1543286555.3,286047003.1,P
1543286575.1,286047005.8,Y
1543286595.9,286047000.5,P
1543286615.7,286047002.6,N
1543286635.6,286047002.8,N
1543286655.4,286047002.6,N
1543286675.2,286047002.0,N
1543286695.1,286047003.2,Y
1543286696.0,286047003.2,P
1543286715.8,286047001.0,N
1543286735.6,286047001.2,N
1543286755.5,286046998.9,N
1543286775.3,286046999.6,N
1543286795.2,286046999.0,N
1543286815.9,286046999.9,N
1543286835.7,286047002.4,N
1543286855.6,286047000.0,N
1543286875.4,286047003.8,N
1543286895.3,286047005.9,Y
1543286915.1,286046999.9,P
1543286916.0,286046999.9,N
1543286935.8,286046998.9,N
1543286955.7,286046996.6,Y
1543286975.5,286046999.0,P
1543286995.3,286047001.2,N
1543287015.2,286047002.0,N
1543287035.0,286047004.2,Y
1543287035.9,286047004.2,P
1543287055.8,286047003.9,N
1543287075.6,286047001.7,N
1543287095.4,286047004.3,N
1543287115.3,286047002.1,N
1543287135.1,286047002.7,N
1543287155.9,286047003.8,N
1543287175.7,286047001.7,N
1543287195.5,286047003.4,N
1543287215.4,286047001.7,N
1543287235.2,286047001.6,N
1543287255.0,286047003.5,N
1543287255.9,286047003.5,N
1543287275.8,286047003.8,Y
1543287295.6,286047000.2,P
1543287315.5,286047000.6,N
1543287335.3,286047002.0,N
1543287355.1,286047001.3,N
1543287375.9,286047003.3,Y
1543287395.7,286047001.5,P
1543287415.5,286047002.7,P
1543287435.4,286047002.4,P
1543287455.2,286047002.3,Y
1543287475.1,286046999.4,P
1543287476.0,286046999.4,N
1543287495.8,286046999.0,N
1543287515.6,286046996.8,N
1543287535.5,286046997.2,N
1543287555.3,286046996.6,N
1543287575.2,286046998.6,N
1543287595.9,286046998.1,N
